Location: Monroe
(41.9160°N, 83.3980°W)
Time: 15:12:26
(UTC-04:00)

ISS - All Passes

Search period start: 22 May 2017 00:00
Search period end: 01 June 2017 00:00
Orbit: 402 x 408 km, 51.6° (Epoch: 22 May)

Date Brightness Start Highest point End Pass type
(mag) Time Alt. Az. Time Alt. Az. Time Alt. Az.
22 May - 00:39:01 10° W 00:42:02 32° NNW 00:45:03 10° NE visible
22 May - 02:17:11 10° NW 02:19:16 15° N 02:21:20 10° NE visible
22 May - 03:54:10 10° NW 03:56:40 20° NNE 03:59:11 10° ENE visible
22 May - 05:30:18 10° NW 05:33:35 79° NNE 05:36:51 10° ESE visible
22 May - 07:08:17 10° WSW 07:09:38 12° SW 07:11:00 10° SSW daylight
22 May - 22:11:12 10° S 22:13:39 19° SE 22:16:05 10° E visible
22 May - 23:46:41 10° WSW 23:49:54 51° NNW 23:53:08 10° NE visible
23 May - 01:24:40 10° NW 01:26:58 17° N 01:29:15 10° NNE visible
23 May - 03:02:11 10° NNW 03:04:24 17° N 03:06:36 10° NE visible
23 May - 04:38:20 10° NW 04:41:31 45° NNE 04:44:40 10° ESE visible
23 May - 06:15:12 10° W 06:17:50 22° SW 06:20:27 10° S daylight
23 May - 21:21:20 10° SE 21:21:50 10° SE 21:22:21 10° ESE daylight
23 May - 22:54:33 10° SW 22:57:50 88° SSE 23:01:08 10° NE visible
24 May - 00:32:04 10° WNW 00:34:41 21° NNW 00:37:18 10° NE visible
24 May - 02:10:02 10° NW 02:12:04 15° N 02:14:06 10° NE visible
24 May - 03:46:25 10° NW 03:49:21 29° NNE 03:52:17 10° E visible
24 May - 05:22:47 10° WNW 05:25:55 42° SW 05:29:01 10° SSE visible
24 May - 22:02:41 10° SW 22:05:50 46° SE 22:09:00 10° ENE visible
24 May - 23:39:31 10° W 23:42:26 28° NNW 23:45:22 10° NE visible
25 May - 01:17:42 10° NW 01:19:44 15° N 01:21:45 10° NE visible
25 May - 02:54:28 10° NW 02:57:07 22° NNE 02:59:44 10° ENE visible
25 May - 04:30:38 10° WNW 04:33:56 83° SW 04:37:11 10° SE visible
25 May - 21:11:11 10° S 21:13:54 24° SE 21:16:38 10° ENE daylight
25 May - 22:47:06 10° WSW 22:50:15 42° NNW 22:53:25 10° NE visible
26 May - 00:25:10 10° NW 00:27:22 16° N 00:29:35 10° NNE visible
26 May - 02:02:29 10° NNW 02:04:49 18° NNE 02:07:08 10° ENE visible
26 May - 03:38:36 10° NW 03:41:51 55° NNE 03:45:04 10° ESE visible
26 May - 05:15:45 10° W 05:18:04 18° SW 05:20:22 10° S visible
26 May - 20:20:23 10° SSE 20:22:02 13° SE 20:23:41 10° E daylight
26 May - 21:54:50 10° WSW 21:58:07 74° NNW 22:01:24 10° NE visible
26 May - 23:32:33 10° WNW 23:35:03 19° NNW 23:37:32 10° NE visible
27 May - 01:10:22 10° NW 01:12:27 16° N 01:14:33 10° NE visible
27 May - 02:46:38 10° NW 02:49:41 34° NNE 02:52:42 10° E visible
27 May - 04:23:09 10° WNW 04:26:09 33° SW 04:29:08 10° SSE visible
27 May - 21:02:49 10° SW 21:06:03 59° SE 21:09:18 10° ENE daylight
27 May - 22:39:56 10° W 22:42:45 25° NNW 22:45:33 10° NE visible
28 May - 00:18:04 10° NW 00:20:05 15° N 00:22:05 10° NE visible
28 May - 01:54:40 10° NW 01:57:26 24° NNE 02:00:10 10° ENE visible
28 May - 03:30:54 10° WNW 03:34:09 65° SW 03:37:23 10° SE visible
28 May - 20:11:06 10° SSW 20:14:03 30° SE 20:17:00 10° ENE daylight
28 May - 21:47:24 10° W 21:50:30 36° NNW 21:53:35 10° NE visible
28 May - 23:25:34 10° NW 23:27:41 16° N 23:29:48 10° NNE visible
29 May - 01:02:40 10° NW 01:05:06 19° NNE 01:07:32 10° ENE visible
29 May - 02:38:47 10° NW 02:42:04 68° NNE 02:45:19 10° ESE visible
29 May - 04:16:20 10° W 04:18:11 14° SW 04:20:00 10° SSW night (unlit)
29 May - 19:19:55 10° S 19:22:07 17° SE 19:24:18 10° E daylight
29 May - 20:55:03 10° WSW 20:58:18 59° NNW 21:01:34 10° NE daylight
29 May - 22:32:56 10° WNW 22:35:18 18° NNW 22:37:41 10° NNE visible
30 May - 00:10:33 10° NNW 00:12:44 16° N 00:14:53 10° NE visible
30 May - 01:46:45 10° NW 01:49:53 40° NNE 01:53:00 10° E visible
30 May - 03:23:27 10° WNW 03:26:16 26° SW 03:29:03 10° SSE night (unlit)
30 May - 20:02:53 10° SW 20:06:10 76° SE 20:09:28 10° ENE daylight
30 May - 21:40:15 10° WNW 21:42:56 23° NNW 21:45:39 10° NE visible
30 May - 23:18:17 10° NW 23:20:19 15° N 23:22:20 10° NE visible
31 May - 00:54:44 10° NW 00:57:37 27° NNE 01:00:29 10° E visible
31 May - 02:31:03 10° WNW 02:34:15 50° SW 02:37:26 10° SE visible
31 May - 19:11:00 10° SSW 19:14:06 39° SE 19:17:12 10° ENE daylight
31 May - 20:47:38 10° W 20:50:38 31° NNW 20:53:38 10° NE daylight
31 May - 22:25:49 10° NW 22:27:53 15° N 22:29:57 10° NE visible
